User: anonymous   Login
Location: Buckland
(65.9785°N, 161.1281°W)
Time: 02:43:21
(UTC+00:00)
Language:

Courier 1B Rocket - Orbit

View from above orbital plane
View from above orbital plane
View from above satellite
View from above satellite

Ground track
Ground track

The orbit data is extracted from the following two-line orbital elements,

1    59U 60013B   21138.52141378  .00000123  00000-0  42149-4 0  9990
2    59  28.2501 297.0277 0189209 218.5427 140.1471 13.52985167992528
Epoch (UTC): 18 May 2021 12:30:50
Eccentricity: 0.0189209
inclination: 28.2501°
perigee height: 920 km
apogee height: 1202 km
right ascension of ascending node: 297.0277°
argument of perigee: 218.5427°
revolutions per day: 13.52985167
mean anomaly at epoch: 140.1471°
orbit number at epoch: 99252

The dashed part of the orbit path shows where the satellite is in the earth's shadow,  

DLR